Location: Unspecified
(64.9000°N, 0.0000°E)
Time: 01:01:14
(UTC+00:00)

Transit 2A Rocket - Pass Details

Date: 19 June 2019
Orbit: 593 x 910 km, 66.7° (Epoch: 14 October)

Event Time Altitude Azimuth Distance (km) Brightness Sun altitude
Rises 16:05:02 0° 283° (WNW) 3,485 9.2 33.3°
Reaches altitude 10° 16:07:37 10° 285° (WNW) 2,513 8.7 33.1°
Maximum altitude 16:13:27 79° 13° (NNE) 840 5.7 32.5°
Drops below altitude 10° 16:18:48 10° 100° (E) 2,309 7.1 31.9°
Sets 16:21:05 0° 102° (ESE) 3,184 7.7 31.7°
